| time (UTC) | temp F | wind direction | speed MPH | gust MPH | rain 1hr in | rain 24hr in | rain mn in | humidity % | barometer mb |
| 20260831124805 | 53 | 255 | 0.0 | 1.0 | 0.00 | 0.04 | 0.00 | 69 | 1019.0 |
| 20260831124305 | 53 | 255 | 0.0 | 0.0 | 0.00 | 0.04 | 0.00 | 69 | 1019.0 |
| 20260831123805 | 53 | 255 | 0.0 | 0.0 | 0.00 | 0.04 | 0.00 | 68 | 1018.8 |
| 20260831122805 | 53 | 255 | 0.0 | 1.0 | 0.00 | 0.04 | 0.00 | 67 | 1018.8 |
| 20260831122306 | 54 | 255 | 0.0 | 1.0 | 0.00 | 0.04 | 0.00 | 67 | 1018.2 |
| 20260831121805 | 54 | 255 | 0.0 | 2.0 | 0.00 | 0.04 | 0.00 | 68 | 1018.3 |
| 20260831121305 | 53 | 256 | 1.0 | 1.0 | 0.00 | 0.04 | 0.00 | 68 | 1018.4 |
| 20260831120805 | 53 | 256 | 0.0 | 1.0 | 0.00 | 0.04 | 0.00 | 68 | 1018.2 |
| 20260831120304 | 53 | 256 | 0.0 | 1.0 | 0.00 | 0.04 | 0.00 | 69 | 1018.1 |
| 20260831115805 | 53 | 256 | 0.0 | 1.0 | 0.00 | 0.04 | 0.00 | 70 | 1018.2 |
| 20260831114805 | 53 | 256 | 0.0 | 0.0 | 0.00 | 0.04 | 0.00 | 71 | 1018.0 |
| 20260831113805 | 54 | 256 | 0.0 | 1.0 | 0.00 | 0.04 | 0.00 | 69 | 1017.8 |
| 20260831113305 | 54 | 256 | 1.0 | 2.0 | 0.00 | 0.04 | 0.00 | 69 | 1017.6 |
| 20260831112806 | 54 | 252 | 1.0 | 5.0 | 0.00 | 0.04 | 0.00 | 68 | 1017.6 |
| 20260831112307 | 55 | 245 | 1.0 | 5.0 | 0.00 | 0.04 | 0.00 | 68 | 1017.3 |
| 20260831111805 | 55 | 258 | 1.0 | 2.0 | 0.00 | 0.04 | 0.00 | 68 | 1017.1 |
| 20260831111304 | 55 | 257 | 1.0 | 2.0 | 0.00 | 0.04 | 0.00 | 68 | 1017.3 |
| 20260831110304 | 55 | 256 | 0.0 | 2.0 | 0.00 | 0.04 | 0.00 | 68 | 1017.3 |
| 20260831105804 | 55 | 260 | 1.0 | 3.0 | 0.00 | 0.04 | 0.00 | 68 | 1016.9 |
| 20260831104805 | 55 | 244 | 1.0 | 3.0 | 0.00 | 0.04 | 0.00 | 68 | 1016.8 |
| 20260831103804 | 55 | 258 | 1.0 | 3.0 | 0.00 | 0.04 | 0.00 | 69 | 1016.8 |
| 20260831103305 | 55 | 253 | 1.0 | 2.0 | 0.00 | 0.04 | 0.00 | 70 | 1016.7 |
| 20260831102804 | 55 | 260 | 0.0 | 2.0 | 0.00 | 0.04 | 0.00 | 70 | 1016.8 |
| 20260831102306 | 55 | 264 | 2.0 | 5.0 | 0.00 | 0.04 | 0.00 | 69 | 1016.5 |
| 20260831101805 | 55 | 264 | 3.0 | 6.0 | 0.00 | 0.04 | 0.00 | 69 | 1016.4 |
| 20260831100804 | 55 | 265 | 3.0 | 7.0 | 0.00 | 0.04 | 0.00 | 69 | 1016.6 |
| 20260831095805 | 56 | 264 | 2.0 | 6.0 | 0.00 | 0.04 | 0.00 | 68 | 1016.4 |
| 20260831095306 | 56 | 267 | 2.0 | 6.0 | 0.00 | 0.04 | 0.00 | 68 | 1016.3 |
| 20260831094305 | 56 | 248 | 2.0 | 7.0 | 0.00 | 0.04 | 0.00 | 69 | 1016.4 |
| 20260831093805 | 56 | 256 | 3.0 | 7.0 | 0.00 | 0.04 | 0.00 | 69 | 1016.4 |
| 20260831093305 | 56 | 262 | 2.0 | 5.0 | 0.00 | 0.04 | 0.00 | 70 | 1016.6 |
| 20260831092804 | 56 | 297 | 1.0 | 3.0 | 0.00 | 0.04 | 0.00 | 70 | 1016.7 |
| 20260831092306 | 56 | 276 | 1.0 | 5.0 | 0.00 | 0.04 | 0.00 | 70 | 1016.6 |
| 20260831091804 | 56 | 339 | 2.0 | 5.0 | 0.00 | 0.04 | 0.00 | 70 | 1016.7 |
| 20260831091305 | 56 | 260 | 1.0 | 7.0 | 0.00 | 0.04 | 0.00 | 70 | 1016.7 |
| 20260831090804 | 56 | 269 | 2.0 | 5.0 | 0.00 | 0.04 | 0.00 | 69 | 1016.6 |
| 20260831090305 | 56 | 262 | 2.0 | 8.0 | 0.00 | 0.04 | 0.00 | 69 | 1016.5 |
| 20260831085306 | 56 | 269 | 2.0 | 6.0 | 0.00 | 0.04 | 0.00 | 69 | 1016.8 |
| 20260831084804 | 56 | 270 | 2.0 | 7.0 | 0.00 | 0.04 | 0.00 | 69 | 1016.7 |
| 20260831084305 | 56 | 243 | 3.0 | 7.0 | 0.00 | 0.04 | 0.00 | 68 | 1016.5 |
| 20260831083805 | 56 | 193 | 1.0 | 8.0 | 0.00 | 0.04 | 0.00 | 68 | 1016.5 |
| 20260831083304 | 57 | 5 | 2.0 | 8.0 | 0.00 | 0.04 | 0.00 | 68 | 1016.3 |
| 20260831082804 | 57 | 236 | 2.0 | 9.0 | 0.00 | 0.04 | 0.00 | 66 | 1016.2 |
| 20260831082306 | 57 | 359 | 2.0 | 8.0 | 0.00 | 0.04 | 0.00 | 65 | 1016.1 |
| 20260831081304 | 57 | 340 | 2.0 | 6.0 | 0.00 | 0.04 | 0.00 | 64 | 1016.1 |
| 20260831080804 | 57 | 267 | 2.0 | 8.0 | 0.00 | 0.04 | 0.00 | 63 | 1016.0 |
| 20260831075806 | 58 | 272 | 2.0 | 10.0 | 0.00 | 0.04 | 0.00 | 62 | 1016.4 |
| 20260831074804 | 57 | 251 | 3.0 | 8.0 | 0.00 | 0.04 | 0.00 | 62 | 1016.7 |
| 20260831074304 | 57 | 246 | 2.0 | 6.0 | 0.00 | 0.04 | 0.00 | 63 | 1016.7 |
| 20260831073805 | 57 | 235 | 2.0 | 5.0 | 0.00 | 0.04 | 0.00 | 63 | 1016.7 |
| 20260831073304 | 57 | 253 | 2.0 | 6.0 | 0.00 | 0.04 | 0.00 | 63 | 1016.8 |
| 20260831072804 | 57 | 275 | 3.0 | 7.0 | 0.00 | 0.04 | 0.00 | 63 | 1016.7 |
| 20260831072306 | 57 | 281 | 3.0 | 7.0 | 0.00 | 0.04 | 0.00 | 63 | 1016.8 |
| 20260831071806 | 57 | 265 | 2.0 | 7.0 | 0.00 | 0.04 | 0.00 | 64 | 1016.3 |
| 20260831070804 | 57 | 315 | 3.0 | 7.0 | 0.00 | 0.04 | 0.00 | 64 | 1016.4 |
| 20260831070305 | 57 | 258 | 2.0 | 6.0 | 0.00 | 0.04 | 0.00 | 63 | 1016.6 |
| 20260831065805 | 57 | 263 | 2.0 | 6.0 | 0.00 | 0.04 | 0.00 | 63 | 1016.5 |
| 20260831065306 | 57 | 320 | 2.0 | 7.0 | 0.00 | 0.04 | 0.00 | 63 | 1016.7 |
| 20260831064305 | 57 | 270 | 2.0 | 5.0 | 0.00 | 0.04 | 0.00 | 62 | 1016.4 |
| 20260831063805 | 57 | 267 | 1.0 | 5.0 | 0.00 | 0.04 | 0.00 | 61 | 1016.6 |
| 20260831062805 | 57 | 306 | 2.0 | 6.0 | 0.00 | 0.04 | 0.00 | 61 | 1016.5 |
| 20260831062306 | 57 | 312 | 1.0 | 8.0 | 0.00 | 0.04 | 0.00 | 62 | 1016.5 |
| 20260831061804 | 57 | 337 | 1.0 | 8.0 | 0.00 | 0.04 | 0.00 | 61 | 1016.5 |
| 20260831061305 | 57 | 348 | 2.0 | 5.0 | 0.00 | 0.04 | 0.00 | 61 | 1016.7 |
| 20260831060819 | 57 | 322 | 1.0 | 3.0 | 0.00 | 0.04 | 0.00 | 61 | 1016.5 |
| 20260831060305 | 58 | 334 | 1.0 | 6.0 | 0.00 | 0.04 | 0.00 | 61 | 1016.7 |
| 20260831055306 | 57 | 271 | 2.0 | 7.0 | 0.00 | 0.04 | 0.04 | 60 | 1016.7 |
| 20260831054805 | 57 | 238 | 1.0 | 5.0 | 0.00 | 0.04 | 0.04 | 61 | 1016.8 |
| 20260831053804 | 57 | 18 | 3.0 | 8.0 | 0.00 | 0.04 | 0.04 | 62 | 1016.9 |
| 20260831053304 | 57 | 76 | 2.0 | 6.0 | 0.00 | 0.04 | 0.04 | 62 | 1016.8 |
| 20260831052804 | 57 | 259 | 1.0 | 6.0 | 0.00 | 0.04 | 0.04 | 62 | 1016.9 |
| 20260831052307 | 57 | 330 | 2.0 | 5.0 | 0.00 | 0.04 | 0.04 | 61 | 1016.9 |
| 20260831051804 | 57 | 319 | 2.0 | 5.0 | 0.00 | 0.04 | 0.04 | 60 | 1016.7 |
| 20260831051304 | 57 | 29 | 1.0 | 5.0 | 0.00 | 0.04 | 0.04 | 58 | 1016.9 |
| 20260831050805 | 57 | 264 | 2.0 | 7.0 | 0.00 | 0.04 | 0.04 | 57 | 1016.9 |
| 20260831045804 | 57 | 345 | 2.0 | 5.0 | 0.00 | 0.04 | 0.04 | 59 | 1017.0 |
| 20260831045306 | 57 | 346 | 1.0 | 5.0 | 0.00 | 0.04 | 0.04 | 59 | 1016.9 |
| 20260831044805 | 57 | 334 | 2.0 | 6.0 | 0.00 | 0.04 | 0.04 | 59 | 1016.8 |
| 20260831043804 | 57 | 258 | 1.0 | 5.0 | 0.00 | 0.04 | 0.04 | 58 | 1017.3 |
| 20260831043305 | 57 | 233 | 1.0 | 3.0 | 0.00 | 0.04 | 0.04 | 58 | 1017.3 |
| 20260831042805 | 57 | 281 | 1.0 | 3.0 | 0.00 | 0.04 | 0.04 | 58 | 1017.2 |
| 20260831042306 | 57 | 251 | 3.0 | 8.0 | 0.00 | 0.04 | 0.04 | 57 | 1017.4 |
| 20260831040806 | 57 | 26 | 1.0 | 2.0 | 0.00 | 0.04 | 0.04 | 60 | 1017.4 |
| 20260831040304 | 57 | 22 | 1.0 | 6.0 | 0.00 | 0.04 | 0.04 | 58 | 1017.0 |
| 20260831035306 | 57 | 146 | 1.0 | 10.0 | 0.00 | 0.04 | 0.04 | 56 | 1017.1 |
| 20260831034305 | 58 | 10 | 2.0 | 6.0 | 0.00 | 0.04 | 0.04 | 57 | 1017.3 |
| 20260831032805 | 58 | 294 | 1.0 | 5.0 | 0.00 | 0.04 | 0.04 | 57 | 1017.0 |
| 20260831032306 | 59 | 267 | 1.0 | 5.0 | 0.00 | 0.04 | 0.04 | 59 | 1017.0 |
| 20260831031804 | 59 | 263 | 2.0 | 5.0 | 0.00 | 0.04 | 0.04 | 60 | 1016.8 |
| 20260831031304 | 59 | 270 | 1.0 | 7.0 | 0.00 | 0.04 | 0.04 | 62 | 1016.4 |
| 20260831030805 | 59 | 279 | 2.0 | 6.0 | 0.00 | 0.04 | 0.04 | 62 | 1016.5 |
| 20260831030304 | 60 | 255 | 2.0 | 7.0 | 0.00 | 0.04 | 0.04 | 63 | 1016.1 |
| 20260831025804 | 59 | 253 | 2.0 | 7.0 | 0.00 | 0.04 | 0.04 | 63 | 1016.3 |
| 20260831025306 | 59 | 266 | 1.0 | 5.0 | 0.00 | 0.04 | 0.04 | 64 | 1016.1 |
| 20260831024804 | 59 | 254 | 1.0 | 6.0 | 0.00 | 0.04 | 0.04 | 64 | 1016.1 |
| 20260831023305 | 59 | 192 | 1.0 | 6.0 | 0.00 | 0.04 | 0.04 | 65 | 1015.6 |
| 20260831022306 | 60 | 33 | 3.0 | 7.0 | 0.00 | 0.04 | 0.04 | 65 | 1015.7 |
| 20260831021305 | 60 | 354 | 3.0 | 7.0 | 0.00 | 0.04 | 0.04 | 61 | 1015.4 |
| 20260831020804 | 60 | 38 | 2.0 | 6.0 | 0.00 | 0.04 | 0.04 | 61 | 1015.2 |
| 20260831020305 | 60 | 10 | 1.0 | 6.0 | 0.00 | 0.04 | 0.04 | 63 | 1015.2 |
| 20260831015805 | 60 | 7 | 1.0 | 6.0 | 0.00 | 0.04 | 0.04 | 63 | 1015.1 |
| 20260831014804 | 60 | 344 | 3.0 | 7.0 | 0.00 | 0.04 | 0.04 | 64 | 1015.0 |
| 20260831014304 | 61 | 53 | 1.0 | 6.0 | 0.00 | 0.04 | 0.04 | 64 | 1014.9 |
| 20260831013805 | 61 | 352 | 2.0 | 8.0 | 0.00 | 0.04 | 0.04 | 64 | 1014.9 |
| 20260831013304 | 61 | 30 | 4.0 | 10.0 | 0.00 | 0.04 | 0.04 | 62 | 1014.9 |
| 20260831012805 | 61 | 36 | 4.0 | 12.0 | 0.00 | 0.04 | 0.04 | 62 | 1014.9 |
| 20260831012306 | 61 | 342 | 3.0 | 9.0 | 0.02 | 0.04 | 0.04 | 62 | 1014.8 |
| 20260831011805 | 61 | 33 | 4.0 | 8.0 | 0.02 | 0.04 | 0.04 | 62 | 1015.0 |
| 20260831011305 | 61 | 18 | 2.0 | 8.0 | 0.02 | 0.04 | 0.04 | 63 | 1014.5 |
| 20260831010804 | 61 | 33 | 4.0 | 8.0 | 0.02 | 0.04 | 0.04 | 63 | 1014.6 |
| 20260831010305 | 61 | 24 | 4.0 | 9.0 | 0.02 | 0.04 | 0.04 | 62 | 1014.3 |
| 20260831005805 | 60 | 16 | 3.0 | 13.0 | 0.02 | 0.04 | 0.04 | 63 | 1014.5 |
| 20260831005306 | 60 | 53 | 5.0 | 10.0 | 0.02 | 0.04 | 0.04 | 64 | 1014.6 |
| 20260831004805 | 60 | 13 | 3.0 | 10.0 | 0.02 | 0.04 | 0.04 | 64 | 1014.6 |
| 20260831003805 | 60 | 8 | 2.0 | 9.0 | 0.02 | 0.04 | 0.04 | 69 | 1014.3 |
| 20260831003304 | 60 | 52 | 2.0 | 13.0 | 0.02 | 0.04 | 0.04 | 69 | 1014.4 |
| 20260831002804 | 62 | 107 | 3.0 | 14.0 | 0.02 | 0.04 | 0.04 | 61 | 1013.7 |
| 20260831002306 | 63 | 0 | 6.0 | 16.0 | 0.00 | 0.02 | 0.02 | 57 | 1013.8 |
| 20260831001804 | 63 | 75 | 2.0 | 13.0 | 0.00 | 0.02 | 0.02 | 55 | 1013.5 |
| 20260831001306 | 63 | 17 | 4.0 | 12.0 | 0.00 | 0.02 | 0.02 | 55 | 1013.7 |
| 20260830235306 | 62 | 33 | 4.0 | 13.0 | 0.00 | 0.02 | 0.02 | 56 | 1013.6 |
| 20260830234804 | 62 | 22 | 5.0 | 15.0 | 0.00 | 0.02 | 0.02 | 56 | 1013.6 |
| 20260830234305 | 63 | 8 | 5.0 | 15.0 | 0.00 | 0.02 | 0.02 | 55 | 1013.5 |
| 20260830233805 | 63 | 40 | 5.0 | 18.0 | 0.00 | 0.02 | 0.02 | 54 | 1013.2 |
| 20260830232804 | 64 | 58 | 7.0 | 17.0 | 0.00 | 0.02 | 0.02 | 52 | 1012.7 |
| 20260830231804 | 65 | 329 | 7.0 | 18.0 | 0.00 | 0.02 | 0.02 | 51 | 1012.4 |
| 20260830231304 | 65 | 287 | 6.0 | 16.0 | 0.00 | 0.02 | 0.02 | 52 | 1012.7 |
| 20260830230804 | 64 | 40 | 6.0 | 13.0 | 0.00 | 0.02 | 0.02 | 54 | 1012.6 |
| 20260830230305 | 64 | 353 | 9.0 | 22.0 | 0.00 | 0.02 | 0.02 | 53 | 1012.6 |
| 20260830225306 | 66 | 344 | 9.0 | 18.0 | 0.00 | 0.02 | 0.02 | 52 | 1012.1 |
| 20260830224804 | 66 | 354 | 9.0 | 17.0 | 0.00 | 0.02 | 0.02 | 51 | 1012.1 |
| 20260830224305 | 66 | 7 | 5.0 | 15.0 | 0.00 | 0.02 | 0.02 | 51 | 1011.9 |
| 20260830223805 | 66 | 0 | 5.0 | 14.0 | 0.00 | 0.02 | 0.02 | 52 | 1012.0 |
| 20260830223304 | 65 | 294 | 4.0 | 14.0 | 0.00 | 0.02 | 0.02 | 53 | 1012.2 |
| 20260830222804 | 66 | 27 | 5.0 | 16.0 | 0.00 | 0.02 | 0.02 | 52 | 1012.1 |
| 20260830222306 | 67 | 61 | 5.0 | 14.0 | 0.00 | 0.02 | 0.02 | 50 | 1012.1 |
| 20260830221805 | 67 | 54 | 5.0 | 9.0 | 0.00 | 0.02 | 0.02 | 51 | 1012.0 |
| 20260830221304 | 65 | 11 | 4.0 | 15.0 | 0.00 | 0.02 | 0.02 | 52 | 1012.2 |
| 20260830220305 | 67 | 117 | 4.0 | 17.0 | 0.00 | 0.02 | 0.02 | 48 | 1011.8 |
| 20260830215805 | 67 | 342 | 6.0 | 21.0 | 0.00 | 0.02 | 0.02 | 50 | 1011.8 |
| 20260830215305 | 66 | 285 | 6.0 | 15.0 | 0.00 | 0.02 | 0.02 | 50 | 1011.6 |
| 20260830214804 | 66 | 327 | 9.0 | 16.0 | 0.00 | 0.02 | 0.02 | 50 | 1011.8 |
| 20260830214305 | 67 | 114 | 5.0 | 14.0 | 0.00 | 0.02 | 0.02 | 49 | 1011.7 |
| 20260830213304 | 65 | 123 | 7.0 | 21.0 | 0.00 | 0.02 | 0.02 | 52 | 1012.2 |
| 20260830212804 | 65 | 47 | 6.0 | 15.0 | 0.00 | 0.02 | 0.02 | 52 | 1012.0 |
| 20260830212306 | 65 | 4 | 9.0 | 18.0 | 0.00 | 0.02 | 0.02 | 52 | 1012.2 |
| 20260830210804 | 64 | 98 | 6.0 | 17.0 | 0.00 | 0.02 | 0.02 | 52 | 1012.1 |
| 20260830210305 | 64 | 334 | 6.0 | 17.0 | 0.00 | 0.02 | 0.02 | 52 | 1012.3 |
| 20260830205805 | 64 | 344 | 9.0 | 16.0 | 0.00 | 0.02 | 0.02 | 53 | 1012.2 |
| 20260830205305 | 64 | 19 | 7.0 | 15.0 | 0.00 | 0.02 | 0.02 | 53 | 1011.9 |
| 20260830204804 | 62 | 271 | 5.0 | 13.0 | 0.00 | 0.02 | 0.02 | 55 | 1012.2 |
| 20260830204305 | 62 | 354 | 5.0 | 15.0 | 0.00 | 0.02 | 0.02 | 56 | 1012.2 |
| 20260830203804 | 63 | 331 | 6.0 | 21.0 | 0.00 | 0.02 | 0.02 | 55 | 1012.1 |
| 20260830203304 | 63 | 350 | 6.0 | 17.0 | 0.00 | 0.02 | 0.02 | 55 | 1012.0 |
| 20260830202804 | 63 | 241 | 4.0 | 13.0 | 0.00 | 0.02 | 0.02 | 56 | 1012.0 |
| 20260830201804 | 63 | 90 | 5.0 | 13.0 | 0.00 | 0.02 | 0.02 | 57 | 1011.8 |
| 20260830201305 | 63 | 272 | 5.0 | 15.0 | 0.00 | 0.02 | 0.02 | 57 | 1011.8 |
| 20260830200305 | 61 | 291 | 5.0 | 10.0 | 0.00 | 0.02 | 0.02 | 58 | 1012.1 |
| 20260830195804 | 59 | 306 | 4.0 | 10.0 | 0.00 | 0.02 | 0.02 | 61 | 1012.1 |
| 20260830195305 | 58 | 262 | 3.0 | 12.0 | 0.00 | 0.02 | 0.02 | 63 | 1012.7 |
| 20260830194804 | 58 | 56 | 3.0 | 12.0 | 0.00 | 0.02 | 0.02 | 63 | 1012.8 |
| 20260830194305 | 58 | 263 | 5.0 | 13.0 | 0.00 | 0.02 | 0.02 | 63 | 1012.9 |
| 20260830193304 | 58 | 349 | 4.0 | 12.0 | 0.00 | 0.02 | 0.02 | 63 | 1012.8 |
| 20260830192305 | 58 | 353 | 6.0 | 14.0 | 0.00 | 0.02 | 0.02 | 63 | 1012.8 |
| 20260830191804 | 58 | 284 | 2.0 | 14.0 | 0.00 | 0.02 | 0.02 | 63 | 1013.0 |
| 20260830191304 | 60 | 253 | 7.0 | 14.0 | 0.00 | 0.02 | 0.02 | 60 | 1012.8 |
| 20260830190804 | 58 | 68 | 4.0 | 12.0 | 0.00 | 0.02 | 0.02 | 64 | 1012.8 |
| 20260830190305 | 57 | 242 | 6.0 | 14.0 | 0.00 | 0.02 | 0.02 | 64 | 1013.1 |
| 20260830185804 | 57 | 283 | 5.0 | 8.0 | 0.00 | 0.02 | 0.02 | 63 | 1013.4 |
| 20260830185306 | 57 | 268 | 5.0 | 7.0 | 0.00 | 0.02 | 0.02 | 62 | 1013.4 |
| 20260830184804 | 57 | 276 | 5.0 | 12.0 | 0.00 | 0.02 | 0.02 | 62 | 1013.4 |
| 20260830184305 | 57 | 282 | 5.0 | 12.0 | 0.00 | 0.02 | 0.02 | 62 | 1013.4 |
| 20260830183804 | 57 | 274 | 3.0 | 6.0 | 0.00 | 0.02 | 0.02 | 63 | 1013.5 |
| 20260830183304 | 57 | 285 | 3.0 | 10.0 | 0.00 | 0.02 | 0.02 | 64 | 1013.2 |
| 20260830182805 | 57 | 304 | 6.0 | 12.0 | 0.00 | 0.02 | 0.02 | 63 | 1013.3 |
| 20260830182306 | 57 | 268 | 5.0 | 12.0 | 0.00 | 0.02 | 0.02 | 64 | 1013.5 |
| 20260830181804 | 57 | 72 | 1.0 | 12.0 | 0.00 | 0.02 | 0.02 | 63 | 1013.5 |
| 20260830180304 | 55 | 266 | 2.0 | 9.0 | 0.00 | 0.02 | 0.02 | 65 | 1013.5 |
| 20260830175804 | 55 | 244 | 3.0 | 10.0 | 0.00 | 0.02 | 0.02 | 64 | 1013.6 |
| 20260830175306 | 55 | 290 | 3.0 | 10.0 | 0.00 | 0.02 | 0.02 | 65 | 1013.4 |
| 20260830173804 | 55 | 292 | 3.0 | 14.0 | 0.00 | 0.02 | 0.02 | 65 | 1013.1 |
| 20260830173304 | 55 | 296 | 5.0 | 10.0 | 0.00 | 0.02 | 0.02 | 66 | 1013.1 |
| 20260830172805 | 55 | 299 | 1.0 | 8.0 | 0.00 | 0.02 | 0.02 | 66 | 1013.1 |
| 20260830172306 | 55 | 0 | 4.0 | 10.0 | 0.00 | 0.02 | 0.02 | 66 | 1012.8 |
| 20260830171804 | 55 | 263 | 2.0 | 9.0 | 0.00 | 0.02 | 0.02 | 65 | 1012.9 |
| 20260830171304 | 55 | 52 | 3.0 | 7.0 | 0.00 | 0.02 | 0.02 | 66 | 1012.9 |
| 20260830170805 | 54 | 233 | 3.0 | 10.0 | 0.00 | 0.02 | 0.02 | 65 | 1012.9 |
| 20260830170304 | 54 | 263 | 3.0 | 6.0 | 0.00 | 0.02 | 0.02 | 66 | 1012.8 |
| 20260830165804 | 54 | 258 | 2.0 | 9.0 | 0.00 | 0.02 | 0.02 | 67 | 1013.0 |
| 20260830164804 | 53 | 284 | 2.0 | 8.0 | 0.00 | 0.02 | 0.02 | 67 | 1012.8 |
| 20260830164304 | 53 | 262 | 3.0 | 6.0 | 0.00 | 0.02 | 0.02 | 68 | 1012.7 |
| 20260830163805 | 53 | 263 | 4.0 | 6.0 | 0.00 | 0.02 | 0.02 | 69 | 1012.9 |
| 20260830163303 | 52 | 261 | 2.0 | 5.0 | 0.00 | 0.02 | 0.02 | 71 | 1013.1 |
| 20260830162804 | 52 | 240 | 2.0 | 3.0 | 0.01 | 0.02 | 0.02 | 71 | 1013.3 |
| 20260830162306 | 51 | 275 | 2.0 | 6.0 | 0.01 | 0.02 | 0.02 | 72 | 1013.1 |
| 20260830161804 | 51 | 204 | 2.0 | 8.0 | 0.02 | 0.02 | 0.02 | 72 | 1013.1 |
| 20260830155805 | 52 | 264 | 4.0 | 7.0 | 0.02 | 0.02 | 0.02 | 71 | 1013.0 |
| 20260830154804 | 51 | 251 | 1.0 | 5.0 | 0.02 | 0.02 | 0.02 | 75 | 1013.3 |
| 20260830154304 | 51 | 273 | 2.0 | 7.0 | 0.02 | 0.02 | 0.02 | 75 | 1013.2 |
| 20260830153805 | 50 | 241 | 3.0 | 7.0 | 0.02 | 0.02 | 0.02 | 74 | 1013.3 |
| 20260830153304 | 50 | 269 | 5.0 | 7.0 | 0.02 | 0.02 | 0.02 | 75 | 1013.2 |
| 20260830152804 | 50 | 227 | 3.0 | 6.0 | 0.01 | 0.01 | 0.01 | 75 | 1013.1 |
| 20260830151805 | 51 | 253 | 4.0 | 8.0 | 0.00 | 0.00 | 0.00 | 73 | 1013.3 |
| 20260830151304 | 51 | 228 | 5.0 | 8.0 | 0.00 | 0.00 | 0.00 | 69 | 1013.5 |
| 20260830150305 | 51 | 225 | 3.0 | 8.0 | 0.00 | 0.00 | 0.00 | 68 | 1013.3 |
| 20260830145805 | 51 | 236 | 4.0 | 12.0 | 0.00 | 0.00 | 0.00 | 68 | 1013.1 |
| 20260830145306 | 52 | 232 | 5.0 | 8.0 | 0.00 | 0.00 | 0.00 | 66 | 1013.0 |
| 20260830144804 | 52 | 255 | 5.0 | 8.0 | 0.00 | 0.00 | 0.00 | 63 | 1013.0 |
| 20260830144303 | 52 | 242 | 5.0 | 9.0 | 0.00 | 0.00 | 0.00 | 62 | 1013.1 |
| 20260830143805 | 52 | 242 | 3.0 | 7.0 | 0.00 | 0.00 | 0.00 | 61 | 1013.0 |
| 20260830143304 | 53 | 228 | 5.0 | 8.0 | 0.00 | 0.00 | 0.00 | 60 | 1012.9 |
| 20260830142804 | 52 | 230 | 2.0 | 7.0 | 0.00 | 0.00 | 0.00 | 60 | 1012.7 |
| 20260830142306 | 52 | 263 | 5.0 | 7.0 | 0.00 | 0.00 | 0.00 | 59 | 1012.9 |
| 20260830141304 | 52 | 270 | 2.0 | 5.0 | 0.00 | 0.00 | 0.00 | 59 | 1012.7 |
| 20260830140305 | 53 | 256 | 3.0 | 8.0 | 0.00 | 0.00 | 0.00 | 58 | 1012.6 |
| 20260830135806 | 53 | 220 | 5.0 | 8.0 | 0.00 | 0.00 | 0.00 | 58 | 1012.3 |
| 20260830135306 | 53 | 260 | 6.0 | 12.0 | 0.00 | 0.00 | 0.00 | 57 | 1012.2 |
| 20260830134805 | 53 | 163 | 3.0 | 8.0 | 0.00 | 0.00 | 0.00 | 57 | 1012.2 |
| 20260830134306 | 53 | 263 | 4.0 | 8.0 | 0.00 | 0.00 | 0.00 | 56 | 1012.3 |
| 20260830133306 | 53 | 229 | 4.0 | 9.0 | 0.00 | 0.00 | 0.00 | 57 | 1012.2 |
| 20260830132805 | 53 | 242 | 3.0 | 6.0 | 0.00 | 0.00 | 0.00 | 58 | 1012.1 |
| 20260830132306 | 53 | 252 | 3.0 | 6.0 | 0.00 | 0.00 | 0.00 | 58 | 1012.2 |
| 20260830131306 | 53 | 258 | 3.0 | 9.0 | 0.00 | 0.00 | 0.00 | 57 | 1011.9 |
| 20260830130805 | 53 | 257 | 2.0 | 5.0 | 0.00 | 0.00 | 0.00 | 58 | 1011.7 |
| 20260830130305 | 53 | 240 | 2.0 | 6.0 | 0.00 | 0.00 | 0.00 | 57 | 1011.7 |
| 20260830125806 | 53 | 260 | 3.0 | 6.0 | 0.00 | 0.00 | 0.00 | 58 | 1011.7 |
| 20260830125306 | 53 | 257 | 2.0 | 3.0 | 0.00 | 0.00 | 0.00 | 58 | 1011.8 |